Preview of NWS' New Version of Forecast
This preview is not operational and should not be used for support decisions.

Regional Weather Roundup (RWR)

Issued by Gray - Portland, ME (GYX)

                            
000
ASUS41 KGYX 212010
RWRGYX
WEATHER ROUNDUP FOR MAINE AND NEW HAMPSHIRE
NATIONAL WEATHER SERVICE GRAY ME
400 PM EDT THU MAR 21 2019

MEZ002-005-006-010-012-015-018-020-021-024-026-027-029-212100-
MAINE
  
CITY           SKY/WX    TMP DP  RH WIND       PRES   REMARKS
PORTLAND       CLOUDY    43  32  65 S14G20    30.12F                  
SANFORD        CLOUDY    44  28  53 S12G17    30.10S                  
BAR HARBOR     FAIR      42  27  55 SW15      30.15F                  
WISCASSET      FAIR      44  27  51 S10       30.14F                  
ROCKLAND       FAIR      41  31  67 S13       30.15F                  
FRYEBURG       CLOUDY    46  23  40 S8G16     30.05F                  
LEWISTONAUBURN CLOUDY    43  28  55 S17G25    30.09S                  
AUGUSTA        FAIR      44  26  49 S13G20    30.11S                  
WATERVILLE     FAIR      45  21  38 S10G21    30.07S                  
BANGOR         PTSUNNY   45  25  45 S21G26    30.10S                  
GREENVILLE       N/A     41  20  43 S7        29.98F                  
MILLINOCKET    CLOUDY    46  20  35 VRB6      30.05F                  
HOULTON        CLOUDY    44  24  45 SW10G23   30.03F                  
PRESQUE ISLE   FAIR      46  22  38 S18G25    30.00F                  
FRENCHVILLE    CLOUDY    45  25  45 S15G23    29.94S                  
CARIBOU        PTSUNNY   45  24  43 SW9G21    29.98S                  
$$

NHZ002-005-008-009-011-012-014-212100-
NEW HAMPSHIRE
  
CITY           SKY/WX    TMP DP  RH WIND       PRES   REMARKS
ROCHESTER      CLOUDY    45  32  60 S10       30.09R                  
NASHUA         CLOUDY    49  28  44 VRB6      30.07F                  
MANCHESTER     CLOUDY    50  24  36 S13G20    30.05S                  
CONCORD        CLOUDY    47  27  45 S12       30.06S                  
LACONIA        CLOUDY    46  25  43 S7        30.05F                  
PLYMOUTH       CLOUDY    47  23  39 CALM      30.03S                  
BERLIN         PTSUNNY   45  23  42 S9        29.97F                  
WHITEFIELD     CLOUDY    48  23  37 S9        29.97F                  
JAFFREY        CLOUDY    45  29  53 S12       30.04S                  
KEENE          CLOUDY    46  29  51 S14G20    30.05S                  
LEBANON        CLOUDY    44  31  60 SW10      30.02F                  
MT WASHINGTON  CLOUDY    19  12  73 S25G33      N/A  WCI   2          
$$

VTZ005-007-008-212100-
VERMONT
  
CITY           SKY/WX    TMP DP  RH WIND       PRES   REMARKS
ST JOHNSBURY     N/A     45  27  49 MISG      29.97F                  
MONTPELIER     CLOUDY    42  31  64 S15G23    30.01S                  
BURLINGTON     CLOUDY    48  33  56 S17G25    29.94F                  
$$

MAZ007-012-024-CTZ003-RIZ002-NYZ038-NYZ072-212100-
SOUTHERN NEW ENGLAND AND NY
  
CITY           SKY/WX    TMP DP  RH WIND       PRES   REMARKS
BOSTON         PTSUNNY   51  23  33 S12       30.08F                  
WORCESTER      CLOUDY    43  28  55 SE14      30.03F                  
NANTUCKET      FAIR      44  35  70 E18       30.07F                  
PROVIDENCE     CLOUDY    47  32  56 SE9       30.07F                  
HARTFORD       CLOUDY    48  32  53 S10       30.03F                  
ALBANY         LGT RAIN  44  36  73 S14G24    30.02S                  
NEW YORK CITY  LGT RAIN  43  39  86 NE15      29.94F                  
$$

ANZ081-ANZ082-ANZ150-NHZ014-MEZ023>029-212100-
COASTAL MARINE OBSERVATIONS
  
STATION/POSITION TIME  TEMP    WIND        PRES    WAVE
                       AIR SEA DIR/SP/G            HT/PER
                 (UTC) (F)     (DEG/KT/KT) (MB)    (FT/S)
MOUNT DESERT ROC 2000   40     170/ 14/ 15 1021.4F
MATINICUS ROCK   1900   42     180/ 16/ 17 1020.9F
ISLE OF SHOALS   1900   40     140/ 20/ 21 1019.0F
CASHES LEDGE BUO 1950   42 40              1021.2R   3/ 5
$$

.............KEY..............
   WCI - WIND CHILL
   TC  - TEMPERATURE IN CELSIUS
   VSB - VISIBILITY IN MILES
   HX  - HEAT INDEX
   FAIR- INDICATES FEW OR NO CLOUDS BELOW 12,000 FT, WITH NO 
         SIGNIFICANT WEATHER AND/OR OBSTRUCTIONS TO VISIBILITY.